Mount Shasta, CA

9:04 AM PDT on October 17, 2017 (GMT -0700)
Mount Shasta

Weather History for KMHS - October, 2013

Change the Weather History Date:

Wednesday, October 2, 2013

  Actual Average Record
Temperature  
Mean Temperature 49 °F 56 °F  
Max Temperature 61 °F 73 °F 93 °F (1980)
Min Temperature 36 °F 40 °F 19 °F (1929)
Degree Days  
Heating Degree Days 16 9  
Month to date heating degree days 29 18  
Since 1 July heating degree days 206 255  
Cooling Degree Days 0 0  
Month to date cooling degree days 0 0  
Year to date cooling degree days 474 287  
Moisture  
Dew Point 33 °F    
Average Humidity 60    
Maximum Humidity 82    
Minimum Humidity 40    
Precipitation  
Precipitation 0.00 in 0.03 in 1.62 in (1967)
Month to date precipitation 0.00 0.06  
Year to date precipitation 8.89 28.06  
Sea Level Pressure  
Sea Level Pressure 30.10 in    
Wind  
Wind Speed 5 mph (NW)    
Max Wind Speed 13 mph    
Max Gust Speed 25 mph    
Visibility 10 miles    
Events      
T = Trace of Precipitation, MM = Missing Value Source: NWS Daily Summary

Daily Weather History Graph

Daily Weather History Graph

Search for Another Location

Airport or City:

Trip Planner

Search our weather history database for the weather conditions in past years. The results will help you decide how hot, cold, wet, or windy it might be!

Date:

Astronomy

Oct. 02, 2013 Rise Set
Actual Time 7:07 AM PDT 6:48 PM PDT
Civil Twilight 6:39 AM PDT 7:16 PM PDT
Nautical Twilight 6:07 AM PDT 7:48 PM PDT
Astronomical Twilight 5:35 AM PDT 8:20 PM PDT
Moon 4:44 AM PDT (10/2) 5:28 PM PDT (10/2)
Length of Visible Light 12h 36m
Length of Day
11h 41m
Waning Crescent, 6% of the Moon is Illuminated
Oct 2
Waning Crescent
Oct 4
New
Oct 11
First Quarter
Oct 18
Full
Oct 26
Last Quarter

Hourly Weather History & Observations

Time (PDT) Temp. Windchill Dew Point Humidity Pressure Visibility Wind Dir Wind Speed Gust Speed Precip Events Conditions
12:56 AM 42.1 °F - 35.1 °F 76% 30.14 in 10.0 mi Calm Calm - N/A   Clear
1:56 AM 41.0 °F - 35.1 °F 79% 30.12 in 10.0 mi Calm Calm - N/A   Clear
2:56 AM 42.1 °F - 35.1 °F 76% 30.11 in 10.0 mi Calm Calm - N/A   Clear
3:56 AM 42.1 °F - 34.0 °F 73% 30.09 in 10.0 mi Calm Calm - N/A   Clear
4:56 AM 41.0 °F 39.0 °F 33.1 °F 73% 30.09 in 10.0 mi Variable 3.5 mph - N/A   Clear
5:56 AM 37.0 °F - 32.0 °F 82% 30.10 in 10.0 mi Calm Calm - N/A   Clear
6:56 AM 37.0 °F - 32.0 °F 82% 30.11 in 10.0 mi Calm Calm - N/A   Clear
7:56 AM 39.0 °F 36.8 °F 33.1 °F 79% 30.11 in 10.0 mi WNW 3.5 mph - N/A   Clear
8:56 AM 42.1 °F - 34.0 °F 73% 30.11 in 10.0 mi Calm Calm - N/A   Clear
9:56 AM 48.9 °F - 36.0 °F 61% 30.10 in 10.0 mi Variable 5.8 mph - N/A   Clear
10:56 AM 50.0 °F - 36.0 °F 59% 30.09 in 10.0 mi Variable 6.9 mph - N/A   Clear
11:56 AM 55.0 °F - 35.1 °F 47% 30.06 in 10.0 mi WNW 8.1 mph - N/A   Clear
12:56 PM 57.0 °F - 35.1 °F 44% 30.04 in 10.0 mi WNW 8.1 mph 20.7 mph N/A   Clear
1:56 PM 59.0 °F - 36.0 °F 42% 30.03 in 10.0 mi WNW 10.4 mph 19.6 mph N/A   Clear
2:56 PM 57.9 °F - 35.1 °F 42% 30.04 in 10.0 mi NNW 11.5 mph 25.3 mph N/A   Clear
3:56 PM 54.0 °F - 34.0 °F 47% 30.06 in 10.0 mi NNW 6.9 mph - N/A   Partly Cloudy
4:56 PM 53.1 °F - 32.0 °F 45% 30.08 in 10.0 mi NW 8.1 mph - N/A   Mostly Cloudy
5:56 PM 50.0 °F - 30.0 °F 46% 30.10 in 10.0 mi Variable 5.8 mph - N/A   Clear
6:56 PM 46.9 °F - 28.9 °F 50% 30.12 in 10.0 mi Variable 3.5 mph - N/A   Clear
7:56 PM 46.9 °F - 28.0 °F 48% 30.13 in 10.0 mi Variable 5.8 mph - N/A   Scattered Clouds
8:56 PM 46.9 °F - 30.0 °F 52% 30.14 in 10.0 mi Variable 3.5 mph - N/A   Overcast
9:56 PM 46.0 °F 43.1 °F 30.0 °F 54% 30.14 in 10.0 mi Variable 5.8 mph - N/A   Mostly Cloudy
10:56 PM 45.0 °F 42.6 °F 30.9 °F 58% 30.15 in 10.0 mi Variable 4.6 mph - N/A   Mostly Cloudy
11:56 PM 44.1 °F 40.8 °F 32.0 °F 63% 30.16 in 10.0 mi Variable 5.8 mph - N/A   Scattered Clouds